Regional Weather Roundup
Issued by NWS

Home | Current Version | Previous Version | Text Only | Print | Product List | Glossary Off
Versions: 1 2 3 4 5 6 7 8 9 10 11 12 13 14 15 16 17 18 19 20 21 22 23 24 25 26 27 28 29 30 31 32 33 34 35 36 37 38 39 40 41 42 43 44 45 46 47 48 49 50

231
ASUS44 KJAN 151110
RWRMS

MISSISSIPPI HOURLY WEATHER ROUNDUP
NATIONAL WEATHER SERVICE JACKSON MS
600 AM CDT MON SEP 15 2014

NOTE: "FAIR: INDICATES FEW OR NO CLOUDS BELOW 12,000 FEET WITH NO
SIGNIFICANT WEATHER AND/OR OBSTRUCTIONS TO VISIBILITY.

MSZ001>002-007>008-010>013-018>021-025>028-034>036-151200-
NORTHWEST MISSISSIPPI

CITY           SKY/WX    TMP DP  RH WIND       PRES   REMARKS
CLARKSDALE     FAIR      64  63  94 CALM      30.16R
CLEVELAND      FAIR      64  63  96 N3        30.14R
GREENWOOD      PTCLDY    64  62  93 N3        30.13S
GREENVILLE     PTCLDY    63  60  90 N3        30.13S
GRENADA        FAIR      63  61  94 CALM      30.14S
OLIVE BRANCH   CLEAR     63  63 100 CALM      30.16S
OXFORD         FAIR      61  59  94 CALM      30.17S
TUNICA         PTSUNNY   61  61 100 CALM      30.16S
$$

MSZ003>006-009-014>017-022>024-029>033-037>039-151200-
NORTHEAST MISSISSIPPI

CITY           SKY/WX    TMP DP  RH WIND       PRES   REMARKS
COLUMBUS AFB   NOT AVBL
CORINTH          N/A     61  57  88 CALM      30.16S
GOLDN TRIANGLE CLEAR     64  59  82 NW5       30.14S
STARKVILLE     FAIR      63  61  94 CALM      30.14R
TUPELO         PTCLDY    63  59  87 NE5       30.15R
$$

MSZ040-058-151200-
CENTRAL MISSISSIPPI

CITY           SKY/WX    TMP DP  RH WIND       PRES   REMARKS
JACKSON INTL   CLEAR     70  66  87 CALM      30.12R
JACKSON HAWKNS CLEAR     70  67  90 CALM      30.12S
MERIDIAN KEY   CLEAR     67  65  93 N5        30.13R
MERIDIAN NAS   CLEAR     67  64  90 CALM      30.13R
RAYMOND        FAIR      66  63  88 CALM      30.12S HAZE
VICKSBURG      CLEAR     68  65  90 NE5       30.12S
$$

MSZ059>079-151200-
SOUTH MISSISSIPPI

CITY           SKY/WX    TMP DP  RH WIND       PRES   REMARKS
BROOKHAVEN     FAIR      70  70 100 CALM      30.13R FOG
HATTIESBURG    CLEAR     74  71  91 CALM      30.11R
MCCOMB         CLEAR     73  69  87 NE5       30.11R
NATCHEZ        CLEAR     68  66  94 CALM      30.11S
PINE BELT      CLEAR     72  66  83 NE3       30.12S
$$

MSZ080>082-151200-
COASTAL MISSISSIPPI

CITY           SKY/WX    TMP DP  RH WIND       PRES   REMARKS
BILOXI         NOT AVBL
PASCAGOULA     CLEAR     73  72  96 CALM      30.08S
GULFPORT       CLEAR     76  73  91 NE3       30.07S
$$



USA.gov is the U.S. government's official web portal to all federal, state and local government web resources and services.